N1YZ Weather Reports


Display with metric or nautical units.
time (UTC)temp
F
wind
direction
speed
MPH
gust
MPH
rain 1hr
in
rain 24hr
in
rain mn
in
humidity
%
barometer
mb
20260906113738 76 10 0.0 0.0 0.00 0.00 0.00 92 1031.9
20260906113237 76 10 0.0 0.0 0.00 0.00 0.00 91 1032.3
20260906112737 76 9 0.0 0.0 0.00 0.00 0.00 91 1032.2
20260906112233 76 10 0.0 0.0 0.00 0.00 0.00 91 1032.2
20260906111733 76 9 0.0 0.0 0.00 0.00 0.00 91 1032.3
20260906111227 77 12 0.0 0.0 0.00 0.00 0.00 90 1032.3
20260906110723 77 11 0.0 0.0 0.00 0.00 0.00 90 1032.4
20260906110219 77 13 0.0 1.0 0.00 0.00 0.00 90 1032.6
20260906105717 77 339 0.0 1.0 0.00 0.00 0.00 90 1032.4
20260906105214 77 24 0.0 0.0 0.00 0.00 0.00 90 1032.2
20260906104713 77 24 0.0 0.0 0.00 0.00 0.00 89 1032.5
20260906104213 77 25 0.0 0.0 0.00 0.00 0.00 89 1032.4
20260906103710 77 8 0.0 0.0 0.00 0.00 0.00 88 1032.5
20260906103205 77 30 0.0 0.0 0.00 0.00 0.00 88 1032.5
20260906102701 77 32 0.0 0.0 0.00 0.00 0.00 87 1032.5
20260906102159 78 42 0.0 0.0 0.00 0.00 0.00 87 1032.5
20260906101654 78 26 0.0 0.0 0.00 0.00 0.00 87 1032.5
20260906101149 78 4 0.0 0.0 0.00 0.00 0.00 87 1032.4
20260906100644 78 7 0.0 0.0 0.00 0.00 0.00 88 1032.4
20260906100139 78 7 0.0 0.0 0.00 0.00 0.00 91 1032.6
20260906095634 78 357 0.0 0.0 0.00 0.00 0.00 93 1032.1
20260906095130 78 359 0.0 0.0 0.00 0.00 0.00 94 1031.9
20260906094628 78 3 0.0 0.0 0.00 0.00 0.00 94 1031.6
20260906094125 78 3 0.0 0.0 0.00 0.00 0.00 94 1031.5
20260906093620 78 24 0.0 0.0 0.00 0.00 0.00 95 1031.8
20260906093114 78 24 0.0 0.0 0.00 0.00 0.00 95 1031.8
20260906092609 78 24 0.0 0.0 0.00 0.00 0.00 95 1031.6
20260906092104 78 24 0.0 0.0 0.00 0.00 0.00 95 1031.6
20260906091600 78 6 0.0 0.0 0.00 0.00 0.00 95 1031.7
20260906091056 78 6 0.0 0.0 0.00 0.00 0.00 95 1031.4
20260906090551 78 6 0.0 0.0 0.00 0.00 0.00 95 1031.4
20260906090046 78 6 0.0 0.0 0.00 0.00 0.00 95 1031.5
20260906085545 78 11 0.0 0.0 0.00 0.00 0.00 95 1031.8
20260906085045 78 7 0.0 0.0 0.00 0.00 0.00 95 1031.7
20260906084539 78 7 0.0 0.0 0.00 0.00 0.00 95 1031.7
20260906084038 78 7 0.0 0.0 0.00 0.00 0.00 95 1031.7
20260906083534 78 15 0.0 0.0 0.00 0.00 0.00 96 1031.8
20260906083034 78 16 0.0 0.0 0.00 0.00 0.00 96 1031.9
20260906082529 78 15 0.0 0.0 0.00 0.00 0.00 96 1032.0
20260906082025 78 15 0.0 0.0 0.00 0.00 0.00 95 1031.8
20260906081520 78 15 0.0 0.0 0.00 0.00 0.00 95 1032.0
20260906081016 78 15 0.0 0.0 0.00 0.00 0.00 95 1032.1
20260906080512 78 15 0.0 0.0 0.00 0.00 0.00 95 1032.2
20260906080008 78 15 0.0 0.0 0.00 0.00 0.00 95 1032.3
20260906075502 78 21 0.0 0.0 0.00 0.00 0.00 95 1032.3
20260906074956 78 21 0.0 0.0 0.00 0.00 0.00 95 1032.0
20260906074451 78 21 0.0 0.0 0.00 0.00 0.00 95 1031.7
20260906073949 78 21 0.0 0.0 0.00 0.00 0.00 95 1031.9
20260906073445 78 24 0.0 0.0 0.00 0.00 0.00 95 1031.9
20260906072941 78 24 0.0 0.0 0.00 0.00 0.00 95 1031.6
20260906072436 78 28 0.0 0.0 0.00 0.00 0.00 94 1031.6
20260906071932 78 29 0.0 0.0 0.00 0.00 0.00 95 1031.6
20260906071428 78 27 0.0 0.0 0.00 0.00 0.00 95 1031.9
20260906070924 78 27 0.0 0.0 0.00 0.00 0.00 94 1031.7
20260906070419 78 27 0.0 0.0 0.00 0.00 0.00 94 1031.8
20260906065915 78 27 0.0 0.0 0.00 0.00 0.00 94 1031.8
20260906065409 78 27 0.0 0.0 0.00 0.00 0.00 94 1031.7
20260906064904 78 28 0.0 0.0 0.00 0.00 0.00 94 1031.9
20260906064400 78 28 0.0 0.0 0.00 0.00 0.00 94 1031.9
20260906063855 78 28 0.0 0.0 0.00 0.00 0.00 94 1032.1
20260906063350 78 32 0.0 0.0 0.00 0.00 0.00 94 1032.3
20260906062845 78 32 0.0 0.0 0.00 0.00 0.00 93 1032.2
20260906062344 78 32 0.0 0.0 0.00 0.00 0.00 93 1032.5
20260906061840 78 32 0.0 0.0 0.00 0.00 0.00 93 1032.5
20260906061337 78 56 0.0 0.0 0.00 0.00 0.00 93 1032.4
20260906060831 78 70 0.0 0.0 0.00 0.00 0.00 92 1032.3
20260906060329 78 14 0.0 0.0 0.00 0.00 0.00 93 1032.4
20260906055824 78 2 0.0 0.0 0.00 0.00 0.00 92 1032.3
20260906055320 78 2 0.0 0.0 0.00 0.00 0.00 92 1032.4
20260906054815 78 2 0.0 0.0 0.00 0.00 0.00 92 1032.4
20260906054310 78 2 0.0 0.0 0.00 0.00 0.00 92 1032.5
20260906053807 78 3 0.0 0.0 0.00 0.00 0.00 92 1032.5
20260906053302 78 3 0.0 0.0 0.00 0.00 0.00 92 1032.6
20260906052757 78 3 0.0 0.0 0.00 0.00 0.00 92 1032.5
20260906052253 78 3 0.0 0.0 0.00 0.00 0.00 92 1032.5
20260906051750 78 3 0.0 0.0 0.00 0.00 0.00 92 1032.4
20260906051249 78 2 0.0 0.0 0.00 0.00 0.00 92 1032.5
20260906050745 78 6 0.0 0.0 0.00 0.00 0.00 92 1032.8
20260906050240 78 5 0.0 0.0 0.00 0.00 0.00 92 1033.0
20260906045739 79 21 0.0 0.0 0.00 0.00 0.00 91 1032.8
20260906045233 79 22 0.0 0.0 0.00 0.00 0.00 91 1032.6
20260906044729 79 13 0.0 0.0 0.00 0.00 0.00 91 1032.6
20260906044224 79 356 0.0 0.0 0.00 0.00 0.00 91 1032.2
20260906043720 79 359 0.0 0.0 0.00 0.00 0.00 91 1032.3
20260906043216 79 359 0.0 0.0 0.00 0.00 0.00 91 1032.4
20260906042715 79 0 0.0 0.0 0.00 0.00 0.00 91 1032.3
20260906042209 79 0 0.0 0.0 0.00 0.00 0.00 91 1032.5
20260906041704 79 0 0.0 0.0 0.00 0.00 0.00 90 1032.4
20260906041159 79 0 0.0 0.0 0.00 0.00 0.00 90 1032.3
20260906040655 79 359 0.0 0.0 0.00 0.00 0.00 90 1032.4
20260906040150 79 349 0.0 0.0 0.00 0.00 0.00 91 1032.3
20260906035645 79 358 0.0 0.0 0.00 0.00 0.00 90 1032.6
20260906035141 79 358 0.0 0.0 0.00 0.00 0.00 90 1032.6
20260906034635 80 358 0.0 0.0 0.00 0.00 0.00 89 1032.6
20260906034130 80 358 0.0 0.0 0.00 0.00 0.00 89 1032.6
20260906033626 80 358 0.0 0.0 0.00 0.00 0.00 88 1032.6
20260906033120 80 358 0.0 0.0 0.00 0.00 0.00 88 1032.6
20260906032617 80 0 0.0 0.0 0.00 0.00 0.00 89 1032.4
20260906032116 80 0 0.0 0.0 0.00 0.00 0.00 89 1032.4
20260906031612 80 0 0.0 0.0 0.00 0.00 0.00 89 1032.4
20260906031108 80 0 0.0 0.0 0.00 0.00 0.00 88 1032.5
20260906030606 80 1 0.0 0.0 0.00 0.00 0.00 88 1032.6
20260906025556 80 359 0.0 0.0 0.00 0.00 0.00 88 1032.3
20260906025054 81 359 0.0 0.0 0.00 0.00 0.00 88 1032.5
20260906024549 81 359 0.0 0.0 0.00 0.00 0.00 87 1032.3
20260906024044 81 359 0.0 0.0 0.00 0.00 0.00 87 1032.4
20260906023540 81 359 0.0 0.0 0.00 0.00 0.00 87 1032.5
20260906023034 81 359 0.0 0.0 0.00 0.00 0.00 87 1032.3
20260906022530 81 359 0.0 0.0 0.00 0.00 0.00 87 1032.3
20260906022025 81 359 0.0 0.0 0.00 0.00 0.00 87 1032.4
20260906021520 81 359 0.0 0.0 0.00 0.00 0.00 87 1032.2
20260906021014 81 359 0.0 0.0 0.00 0.00 0.00 86 1032.4
20260906020514 82 359 0.0 0.0 0.00 0.00 0.00 86 1032.4
20260906020014 82 359 0.0 0.0 0.00 0.00 0.00 86 1032.4
20260906015513 82 359 0.0 0.0 0.00 0.00 0.00 86 1032.3
20260906015013 82 1 0.0 0.0 0.00 0.00 0.00 86 1031.9
20260906014508 82 0 0.0 0.0 0.00 0.00 0.00 86 1031.7
20260906014003 82 1 0.0 0.0 0.00 0.00 0.00 85 1031.6
20260906013458 82 1 0.0 0.0 0.00 0.00 0.00 84 1031.6
20260906012954 82 1 0.0 0.0 0.00 0.00 0.00 84 1031.7
20260906012449 83 1 0.0 0.0 0.00 0.00 0.00 84 1031.4
20260906011948 83 3 0.0 0.0 0.00 0.00 0.00 84 1031.6
20260906011444 83 3 1.0 1.0 0.00 0.00 0.00 84 1031.2
20260906010939 83 358 0.0 0.0 0.00 0.00 0.00 84 1030.7
20260906010434 83 2 0.0 0.0 0.00 0.00 0.00 84 1031.0
20260906005930 83 2 0.0 0.0 0.00 0.00 0.00 84 1030.7
20260906005430 83 3 0.0 0.0 0.00 0.00 0.00 83 1031.0
20260906004928 83 10 0.0 0.0 0.00 0.00 0.00 83 1030.9
20260906004423 84 7 0.0 0.0 0.00 0.00 0.00 82 1031.0
20260906003919 84 0 0.0 0.0 0.00 0.00 0.00 82 1031.0
20260906003414 84 8 0.0 0.0 0.00 0.00 0.00 81 1031.2
20260906002909 84 5 0.0 0.0 0.00 0.00 0.00 81 1030.9
20260906002409 85 7 0.0 0.0 0.00 0.00 0.00 80 1031.0
20260906001904 85 7 0.0 0.0 0.00 0.00 0.00 80 1031.1
20260906001400 85 340 0.0 0.0 0.00 0.00 0.00 79 1031.1
20260906000356 85 338 0.0 0.0 0.00 0.00 0.00 79 1031.0
20260905235849 85 12 0.0 0.0 0.00 0.00 0.00 79 1031.2
20260905235343 86 6 0.0 0.0 0.00 0.00 0.00 79 1031.0
20260905234838 86 10 1.0 2.0 0.00 0.00 0.00 78 1031.2
20260905234334 86 347 1.0 1.0 0.00 0.00 0.00 78 1031.0
20260905233829 86 15 0.0 1.0 0.00 0.00 0.00 79 1031.0
20260905233324 87 349 0.0 1.0 0.00 0.00 0.00 78 1031.1
20260905232823 87 356 2.0 3.0 0.00 0.00 0.00 77 1031.1
20260905232319 87 9 0.0 0.0 0.00 0.00 0.00 78 1031.1
20260905231815 87 13 0.0 0.0 0.00 0.00 0.00 77 1030.9
20260905231310 87 19 0.0 0.0 0.00 0.00 0.00 77 1030.9
20260905230806 87 14 0.0 0.0 0.00 0.00 0.00 77 1030.9
20260905230304 88 20 0.0 0.0 0.00 0.00 0.00 77 1031.0
20260905225803 88 337 0.0 0.0 0.00 0.00 0.00 76 1030.9
20260905225259 89 1 1.0 1.0 0.00 0.00 0.00 75 1031.0
20260905224758 89 21 0.0 1.0 0.00 0.00 0.00 74 1031.1
20260905224254 89 35 1.0 2.0 0.00 0.00 0.00 73 1030.9
20260905223749 90 56 1.0 2.0 0.00 0.00 0.00 72 1030.9
20260905223246 90 2 0.0 0.0 0.00 0.00 0.00 71 1030.5
20260905222741 90 31 0.0 0.0 0.00 0.00 0.00 71 1030.8
20260905222240 90 357 1.0 2.0 0.00 0.00 0.00 71 1030.8
20260905221736 90 7 0.0 1.0 0.00 0.00 0.00 71 1030.6
20260905221233 91 25 0.0 0.0 0.00 0.00 0.00 70 1030.8
20260905220729 91 11 0.0 0.0 0.00 0.00 0.00 71 1030.6
20260905220225 91 7 0.0 1.0 0.00 0.00 0.00 70 1030.5
20260905215724 91 3 0.0 0.0 0.00 0.00 0.00 69 1030.5
20260905215220 91 355 1.0 1.0 0.00 0.00 0.00 68 1030.3
20260905214715 92 21 0.0 0.0 0.00 0.00 0.00 67 1030.3
20260905214211 92 12 0.0 0.0 0.00 0.00 0.00 65 1030.3
20260905213706 93 359 0.0 0.0 0.00 0.00 0.00 63 1030.5
20260905213202 93 8 0.0 0.0 0.00 0.00 0.00 61 1030.3
20260905212657 93 2 0.0 0.0 0.00 0.00 0.00 60 1030.5
20260905212156 93 25 0.0 0.0 0.00 0.00 0.00 61 1030.4
20260905211650 94 26 0.0 0.0 0.00 0.00 0.00 59 1030.6
20260905211146 94 3 0.0 0.0 0.00 0.00 0.00 57 1030.5
20260905210642 94 12 0.0 0.0 0.00 0.00 0.00 61 1030.7
20260905210137 95 356 1.0 1.0 0.00 0.00 0.00 59 1030.6
20260905205636 95 2 0.0 0.0 0.00 0.00 0.00 59 1030.8
20260905205131 95 337 3.0 3.0 0.00 0.00 0.00 60 1030.8
20260905204629 95 9 0.0 0.0 0.00 0.00 0.00 59 1030.6
20260905204125 94 83 1.0 1.0 0.00 0.00 0.00 59 1030.5
20260905203625 94 22 0.0 0.0 0.00 0.00 0.00 61 1030.7
20260905203121 94 3 1.0 1.0 0.00 0.00 0.00 62 1030.8
20260905202616 93 7 0.0 0.0 0.00 0.00 0.00 62 1030.7
20260905202111 94 3 0.0 0.0 0.00 0.00 0.00 62 1031.1
20260905201607 94 349 0.0 0.0 0.00 0.00 0.00 59 1031.1
20260905201106 94 353 0.0 0.0 0.00 0.00 0.00 60 1031.1
20260905200602 94 19 0.0 0.0 0.00 0.00 0.00 61 1031.1
20260905200056 94 6 1.0 2.0 0.00 0.00 0.00 62 1031.0
20260905195550 95 7 1.0 2.0 0.00 0.00 0.00 59 1030.8
20260905195046 96 221 0.0 1.0 0.00 0.00 0.00 54 1031.0
20260905194545 96 352 0.0 0.0 0.00 0.00 0.00 50 1031.1
20260905194045 95 57 0.0 0.0 0.00 0.00 0.00 49 1031.0
20260905193540 96 0 0.0 0.0 0.00 0.00 0.00 54 1031.0
20260905193035 96 27 0.0 0.0 0.00 0.00 0.00 51 1031.2
20260905192530 96 139 1.0 1.0 0.00 0.00 0.00 50 1031.5
20260905192027 96 190 2.0 2.0 0.00 0.00 0.00 50 1031.6
20260905191524 96 50 0.0 1.0 0.00 0.00 0.00 50 1031.7
20260905191024 95 33 1.0 1.0 0.00 0.00 0.00 52 1031.8
20260905190522 94 351 0.0 0.0 0.00 0.00 0.00 55 1031.7
20260905190016 94 26 0.0 0.0 0.00 0.00 0.00 57 1031.7
20260905185510 95 338 2.0 2.0 0.00 0.00 0.00 55 1031.6
20260905185009 96 120 1.0 1.0 0.00 0.00 0.00 51 1031.9
20260905184504 96 18 0.0 0.0 0.00 0.00 0.00 52 1032.1
20260905184003 96 6 1.0 1.0 0.00 0.00 0.00 54 1032.1
20260905183503 97 295 0.0 0.0 0.00 0.00 0.00 55 1032.4
20260905182957 96 192 1.0 1.0 0.00 0.00 0.00 51 1032.2
20260905182457 95 61 1.0 1.0 0.00 0.00 0.00 54 1032.4
20260905181952 96 161 1.0 1.0 0.00 0.00 0.00 53 1032.5
20260905181447 96 2 0.0 0.0 0.00 0.00 0.00 53 1032.5
20260905180946 97 193 2.0 3.0 0.00 0.00 0.00 50 1032.5
20260905180441 96 10 0.0 0.0 0.00 0.00 0.00 53 1032.8
20260905175936 96 78 1.0 1.0 0.00 0.00 0.00 51 1032.9
20260905175435 96 29 0.0 0.0 0.00 0.00 0.00 51 1032.7
20260905174931 97 353 1.0 2.0 0.00 0.00 0.00 53 1032.8
20260905174427 96 343 1.0 1.0 0.00 0.00 0.00 53 1033.0
20260905173922 94 358 0.0 0.0 0.00 0.00 0.00 52 1032.9
20260905173418 95 18 0.0 1.0 0.00 0.00 0.00 56 1033.2
20260905172913 94 66 1.0 1.0 0.00 0.00 0.00 57 1033.3
20260905172411 94 14 0.0 0.0 0.00 0.00 0.00 57 1032.9
20260905171907 93 22 0.0 0.0 0.00 0.00 0.00 60 1033.2
20260905171404 93 27 0.0 1.0 0.00 0.00 0.00 58 1033.3
20260905170900 93 11 1.0 1.0 0.00 0.00 0.00 58 1033.3
20260905170355 93 23 0.0 1.0 0.00 0.00 0.00 62 1033.6
20260905165854 93 7 1.0 1.0 0.00 0.00 0.00 58 1033.6
20260905165350 92 8 0.0 0.0 0.00 0.00 0.00 61 1033.5
20260905164844 92 83 0.0 1.0 0.00 0.00 0.00 58 1033.7
20260905164339 93 25 0.0 0.0 0.00 0.00 0.00 59 1033.9
20260905163835 93 352 0.0 0.0 0.00 0.00 0.00 61 1034.0
20260905163331 93 19 0.0 0.0 0.00 0.00 0.00 58 1033.8
20260905162826 93 282 0.0 0.0 0.00 0.00 0.00 60 1034.0
20260905162321 92 23 0.0 0.0 0.00 0.00 0.00 61 1033.8
20260905161815 92 11 0.0 0.0 0.00 0.00 0.00 65 1033.8
20260905161315 92 23 0.0 0.0 0.00 0.00 0.00 62 1034.1
20260905160813 91 0 0.0 0.0 0.00 0.00 0.00 65 1034.0
20260905160308 92 356 0.0 1.0 0.00 0.00 0.00 62 1034.0
20260905155802 92 76 1.0 2.0 0.00 0.00 0.00 62 1034.1
20260905155301 92 292 0.0 0.0 0.00 0.00 0.00 65 1034.0
20260905154754 91 7 0.0 0.0 0.00 0.00 0.00 65 1034.1
20260905154251 91 29 0.0 0.0 0.00 0.00 0.00 65 1033.8
20260905153746 91 356 1.0 1.0 0.00 0.00 0.00 67 1034.0
20260905153242 91 8 0.0 0.0 0.00 0.00 0.00 66 1033.9
20260905152736 91 21 0.0 0.0 0.00 0.00 0.00 66 1034.0
20260905152230 90 203 0.0 0.0 0.00 0.00 0.00 66 1033.9
20260905151725 89 17 0.0 0.0 0.00 0.00 0.00 68 1034.0
20260905151221 89 12 0.0 0.0 0.00 0.00 0.00 70 1034.0
20260905150716 89 14 0.0 0.0 0.00 0.00 0.00 71 1034.1
20260905150215 89 20 0.0 0.0 0.00 0.00 0.00 73 1034.0
20260905145713 89 358 0.0 0.0 0.00 0.00 0.00 72 1034.0
20260905145208 89 23 0.0 0.0 0.00 0.00 0.00 71 1034.0
20260905144706 90 351 0.0 0.0 0.00 0.00 0.00 72 1034.2
20260905144206 91 352 0.0 0.0 0.00 0.00 0.00 70 1033.9
20260905143705 92 345 0.0 0.0 0.00 0.00 0.00 68 1034.2
20260905143200 92 352 0.0 0.0 0.00 0.00 0.00 69 1034.2
20260905142659 92 353 0.0 0.0 0.00 0.00 0.00 70 1034.3
20260905142154 91 352 0.0 0.0 0.00 0.00 0.00 69 1034.4
20260905141649 88 352 0.0 0.0 0.00 0.00 0.00 75 1034.3
20260905141145 86 8 0.0 0.0 0.00 0.00 0.00 77 1034.3
20260905140640 84 9 0.0 0.0 0.00 0.00 0.00 80 1034.5
20260905140138 83 7 0.0 0.0 0.00 0.00 0.00 84 1034.3
20260905135629 82 351 0.0 0.0 0.00 0.00 0.00 85 1034.4
20260905135124 82 2 0.0 0.0 0.00 0.00 0.00 86 1034.3
20260905134618 81 339 0.0 0.0 0.00 0.00 0.00 87 1034.4
20260905134116 81 313 0.0 0.0 0.00 0.00 0.00 87 1034.5
20260905133612 80 304 0.0 0.0 0.00 0.00 0.00 89 1034.3
20260905133107 79 342 0.0 0.0 0.00 0.00 0.00 90 1034.4
20260905132607 79 358 0.0 0.0 0.00 0.00 0.00 90 1034.3
20260905132101 79 64 0.0 0.0 0.00 0.00 0.00 91 1033.9
20260905131557 78 34 0.0 0.0 0.00 0.00 0.00 91 1034.2
20260905131052 78 25 0.0 0.0 0.00 0.00 0.00 92 1034.5
20260905130550 78 317 0.0 0.0 0.00 0.00 0.00 92 1034.5
20260905130046 78 302 0.0 0.0 0.00 0.00 0.00 93 1034.5
20260905125545 77 327 0.0 0.0 0.00 0.00 0.00 94 1034.5
20260905125041 76 11 0.0 0.0 0.00 0.00 0.00 95 1034.6
20260905124537 76 48 0.0 0.0 0.00 0.00 0.00 96 1034.3
20260905124033 76 6 0.0 0.0 0.00 0.00 0.00 97 1034.5
20260905123529 75 5 0.0 0.0 0.00 0.00 0.00 97 1034.6
20260905123026 75 11 0.0 0.0 0.00 0.00 0.00 97 1034.6
20260905122525 75 11 0.0 0.0 0.00 0.00 0.00 97 1034.4
20260905122020 75 11 0.0 0.0 0.00 0.00 0.00 97 1034.6
20260905121515 74 47 0.0 0.0 0.00 0.00 0.00 97 1034.3
20260905121015 74 47 0.0 0.0 0.00 0.00 0.00 97 1034.3
20260905120509 74 34 0.0 0.0 0.00 0.00 0.00 97 1034.4
20260905120005 74 24 0.0 0.0 0.00 0.00 0.00 98 1034.4
20260905115503 74 24 0.0 0.0 0.00 0.00 0.00 98 1034.1
20260905114958 74 22 0.0 0.0 0.00 0.00 0.00 98 1034.1
20260905114458 74 22 0.0 0.0 0.00 0.00 0.00 98 1034.2
20260905113956 74 22 0.0 0.0 0.00 0.00 0.00 98 1034.0